Olive Branch, MS

3:21 PM CDT on October 19, 2017 (GMT -0500)
Olive Branch

Weather History for KOLV - April, 2014

Change the Weather History Date:

Monday, April 14, 2014

  Actual Average (KMEM) Record (KMEM)
Temperature  
Mean Temperature 50 °F -  
Max Temperature 62 °F 71 °F 88 °F (1883)
Min Temperature 39 °F 53 °F 30 °F (1950)
Degree Days  
Heating Degree Days 14    
Moisture  
Dew Point 53 °F    
Average Humidity 100    
Maximum Humidity 100    
Minimum Humidity 94    
Precipitation  
Precipitation 0.42 in - - ()
Sea Level Pressure  
Sea Level Pressure 29.83 in    
Wind  
Wind Speed 10 mph (WSW)    
Max Wind Speed 21 mph    
Max Gust Speed 30 mph    
Visibility 7 miles    
Events Rain    
Averages and records for this station are not official NWS values.
T = Trace of Precipitation, MM = Missing Value Source: NWS Daily Summary

Daily Weather History Graph

Daily Weather History Graph

Search for Another Location

Airport or City:

Trip Planner

Search our weather history database for the weather conditions in past years. The results will help you decide how hot, cold, wet, or windy it might be!

Date:

Astronomy

Apr. 14, 2014 Rise Set
Actual Time 6:28 AM CDT 7:30 PM CDT
Civil Twilight 6:02 AM CDT 7:56 PM CDT
Nautical Twilight 5:31 AM CDT 8:27 PM CDT
Astronomical Twilight 4:59 AM CDT 8:59 PM CDT
Moon 7:10 PM CDT (4/14) 5:58 AM CDT (4/14)
Length of Visible Light 13h 54m
Length of Day
13h 02m
Full, 100% of the Moon is Illuminated
Apr 14
Full
Apr 15
Full
Apr 22
Last Quarter
Apr 29
New
May 6
First Quarter

Hourly Weather History & Observations

Time (CDT) Temp. Windchill Dew Point Humidity Pressure Visibility Wind Dir Wind Speed Gust Speed Precip Events Conditions
12:15 AM 62.6 °F - 62.6 °F 100% 29.77 in 1.8 mi South 8.1 mph - 0.18 in   Overcast
12:35 AM 62.6 °F - 62.6 °F 100% 29.75 in 8.0 mi South 9.2 mph - 0.22 in   Mostly Cloudy
12:55 AM 62.6 °F - 62.6 °F 100% 29.72 in 10.0 mi SSE 9.2 mph - 0.22 in   Scattered Clouds
1:15 AM 62.6 °F - 62.6 °F 100% 29.72 in 10.0 mi South 8.1 mph - 0.00 in   Partly Cloudy
1:35 AM 62.6 °F - 62.6 °F 100% 29.71 in 7.0 mi SSE 9.2 mph - 0.02 in   Mostly Cloudy
1:55 AM 62.6 °F - 62.6 °F 100% 29.73 in 8.0 mi South 11.5 mph - 0.02 in   Mostly Cloudy
2:15 AM 60.8 °F - 60.8 °F 100% 29.77 in 1.5 mi West 19.6 mph 29.9 mph 0.13 in   Overcast
2:35 AM 59.0 °F - 59.0 °F 100% 29.78 in 10.0 mi West 9.2 mph 18.4 mph 0.14 in   Partly Cloudy
2:55 AM 57.2 °F - 57.2 °F 100% 29.79 in 7.0 mi West 6.9 mph - 0.15 in   Mostly Cloudy
3:15 AM 57.2 °F - 57.2 °F 100% 29.77 in 10.0 mi SSW 3.5 mph - 0.00 in   Mostly Cloudy
3:35 AM 57.2 °F - 57.2 °F 100% 29.75 in 10.0 mi South 4.6 mph - 0.00 in   Partly Cloudy
3:55 AM 57.2 °F - 57.2 °F 100% 29.75 in 7.0 mi South 4.6 mph - 0.00 in   Clear
4:15 AM 57.2 °F - 57.2 °F 100% 29.73 in 10.0 mi South 8.1 mph - 0.00 in   Clear
4:35 AM 57.2 °F - 57.2 °F 100% 29.72 in 9.0 mi South 11.5 mph - 0.00 in   Scattered Clouds
4:55 AM 57.2 °F - 57.2 °F 100% 29.73 in 10.0 mi South 8.1 mph - 0.00 in   Partly Cloudy
5:15 AM 57.2 °F - 57.2 °F 100% 29.69 in 10.0 mi SE 8.1 mph - 0.01 in   Partly Cloudy
5:35 AM 55.4 °F - 55.4 °F 100% 29.73 in 10.0 mi SSE 5.8 mph - 0.01 in   Scattered Clouds
5:55 AM 55.4 °F - 55.4 °F 100% 29.77 in 10.0 mi South 5.8 mph - 0.01 in   Clear
6:15 AM 55.4 °F - 55.4 °F 100% 29.77 in 10.0 mi South 8.1 mph - 0.00 in   Clear
6:35 AM 55.4 °F - 55.4 °F 100% 29.79 in 9.0 mi SSW 8.1 mph - 0.00 in   Partly Cloudy
6:50 AM 55.4 °F - 55.4 °F 100% 29.78 in 10.0 mi SSE 6.9 mph - N/A   Mostly Cloudy
7:50 AM 55.4 °F - 55.4 °F 100% 29.79 in 10.0 mi Calm Calm - N/A   Mostly Cloudy
8:50 AM 57.2 °F - 57.2 °F 100% 29.82 in 10.0 mi Calm Calm - N/A   Mostly Cloudy
9:30 AM 59.0 °F - 59.0 °F 100% 29.84 in 10.0 mi South 8.1 mph - N/A   Overcast
9:50 AM 60.8 °F - 60.8 °F 100% 29.84 in 10.0 mi South 5.8 mph - N/A   Mostly Cloudy
10:35 AM 60.8 °F - 60.8 °F 100% 29.86 in 10.0 mi SW 8.1 mph - N/A   Overcast
11:50 AM 62.6 °F - 62.6 °F 100% 29.84 in 10.0 mi WSW 8.1 mph - N/A   Overcast
12:50 PM 62.6 °F - 60.8 °F 94% 29.83 in 10.0 mi SW 8.1 mph - N/A   Mostly Cloudy
1:50 PM 60.8 °F - 60.8 °F 100% 29.79 in 10.0 mi West 4.6 mph - N/A   Overcast
2:50 PM 55.4 °F - 55.4 °F 100% 29.82 in 10.0 mi West 16.1 mph 23.0 mph N/A   Mostly Cloudy
3:20 PM 51.8 °F - 51.8 °F 100% 29.83 in 4.0 mi NW 8.1 mph 24.2 mph N/A Rain Rain
3:55 PM 50.0 °F - 50.0 °F 100% 29.82 in 1.8 mi NW 15.0 mph - N/A Rain Rain
4:28 PM 48.2 °F - 48.2 °F 100% 29.84 in 2.5 mi NW 13.8 mph 19.6 mph N/A Rain Rain
4:50 PM 48.2 °F - 48.2 °F 100% 29.82 in 4.0 mi North 10.4 mph - N/A Rain Rain
5:50 PM 46.4 °F 40.1 °F 46.4 °F 100% 29.86 in 8.0 mi NNW 15.0 mph 23.0 mph N/A   Overcast
6:11 PM 46.4 °F 41.5 °F 46.4 °F 100% 29.90 in 2.0 mi WNW 10.4 mph - N/A Rain Rain
6:50 PM 46.4 °F 41.1 °F 46.4 °F 100% 29.90 in 3.0 mi NW 11.5 mph - N/A Rain Rain
7:50 PM 44.6 °F 38.1 °F 44.6 °F 100% 29.91 in 8.0 mi NNW 13.8 mph - N/A Rain Light Rain
8:55 PM 42.8 °F 36.2 °F 42.8 °F 100% 29.96 in 1.8 mi North 12.7 mph 18.4 mph 0.01 in   Overcast
9:15 PM 42.8 °F 34.5 °F 42.8 °F 100% 29.97 in 1.5 mi NNW 18.4 mph 21.9 mph 0.01 in   Overcast
9:35 PM 42.8 °F 35.4 °F 42.8 °F 100% 29.98 in 3.0 mi North 15.0 mph 19.6 mph 0.01 in   Overcast
9:55 PM 42.8 °F 34.0 °F 42.8 °F 100% 29.98 in 4.0 mi North 20.7 mph 29.9 mph 0.01 in   Overcast
10:15 PM 41.0 °F 32.5 °F 41.0 °F 100% 29.99 in 3.0 mi NNW 17.3 mph 26.5 mph 0.00 in   Overcast
10:35 PM 41.0 °F 32.5 °F 41.0 °F 100% 30.00 in 2.5 mi NNW 17.3 mph 25.3 mph 0.00 in   Overcast
10:55 PM 39.2 °F 30.5 °F 39.2 °F 100% 29.99 in 9.0 mi North 16.1 mph 23.0 mph N/A   Overcast
11:15 PM 39.2 °F 30.5 °F 39.2 °F 100% 30.00 in 10.0 mi North 16.1 mph 24.2 mph 0.00 in   Overcast
11:35 PM 39.2 °F 30.5 °F 39.2 °F 100% 30.01 in 10.0 mi North 16.1 mph 24.2 mph 0.00 in   Overcast
11:55 PM 39.2 °F 30.2 °F 39.2 °F 100% 30.01 in 10.0 mi North 17.3 mph 24.2 mph N/A   Overcast